contact:dominique.lefevre@mio.osupytheas.fr, maurice.libes@osupytheas.fr, didier.mallarino@osupytheas.fr
Project:EMSO http://www.emso-fr.org/EMSO-France
Depth: 2436.0 m
Title:EMSO Ligure Ouest : Data MII capteur CSTAR
DateTime,Latitude,Longitude,Instrument_Serial,Reference_Counts,Signal_Counts,Corrected_Signal_raw_counts,Calculated_Beam_c_inverse_meters,Internal_thermistor_counts
DateTime,Latitude,Longitude,Instrument_Serial,Reference_Counts,Signal_Counts,Corrected_Signal_raw_counts,Calculated_Beam_c_inverse_meters,Internal_thermistor_counts
2019-12-11T00:02:03,42.805,6.029,CST-1368DR,7186,10070,15288,0.085,551
2019-12-11T00:05:05,42.805,6.029,CST-1368DR,7186,10070,15288,0.085,551
2019-12-11T00:08:07,42.805,6.029,CST-1368DR,7186,10070,15288,0.085,551
2019-12-11T00:11:08,42.805,6.029,CST-1368DR,7186,10070,15288,0.085,550
2019-12-11T00:14:10,42.805,6.029,CST-1368DR,7186,10070,15288,0.085,551
2019-12-11T00:17:11,42.805,6.029,CST-1368DR,7186,10071,15289,0.085,551
2019-12-11T00:20:13,42.805,6.029,CST-1368DR,7186,10071,15289,0.085,551
2019-12-11T00:23:15,42.805,6.029,CST-1368DR,7186,10069,15287,0.085,551
2019-12-11T00:26:16,42.805,6.029,CST-1368DR,7186,10070,15288,0.085,551
2019-12-11T00:29:18,42.805,6.029,CST-1368DR,7186,10071,15289,0.085,551
2019-12-11T00:32:20,42.805,6.029,CST-1368DR,7186,10069,15287,0.085,551
2019-12-11T00:35:21,42.805,6.029,CST-1368DR,7186,10070,15288,0.085,551
2019-12-11T00:38:23,42.805,6.029,CST-1368DR,7186,10071,15289,0.085,551
2019-12-11T00:41:24,42.805,6.029,CST-1368DR,7186,10069,15287,0.085,551
2019-12-11T00:44:26,42.805,6.029,CST-1368DR,7186,10069,15287,0.085,551
2019-12-11T00:47:28,42.805,6.029,CST-1368DR,7186,10068,15285,0.086,551
2019-12-11T00:50:29,42.805,6.029,CST-1368DR,7186,10070,15288,0.085,550
2019-12-11T00:53:31,42.805,6.029,CST-1368DR,7186,10069,15286,0.085,551
2019-12-11T00:56:33,42.805,6.029,CST-1368DR,7186,10068,15285,0.086,551
2019-12-11T00:59:34,42.805,6.029,CST-1368DR,7186,10069,15286,0.085,551
2019-12-11T01:02:36,42.805,6.029,CST-1368DR,7186,10069,15287,0.085,551
2019-12-11T01:05:37,42.805,6.029,CST-1368DR,7186,10070,15288,0.085,551
2019-12-11T01:08:39,42.805,6.029,CST-1368DR,7186,10068,15286,0.085,551
2019-12-11T01:11:41,42.805,6.029,CST-1368DR,7186,10068,15286,0.085,551
2019-12-11T01:14:42,42.805,6.029,CST-1368DR,7186,10065,15281,0.087,551
2019-12-11T01:17:44,42.805,6.029,CST-1368DR,7186,10067,15283,0.086,551
2019-12-11T01:20:45,42.805,6.029,CST-1368DR,7186,10068,15284,0.086,551
2019-12-11T01:23:47,42.805,6.029,CST-1368DR,7186,10069,15286,0.085,551
2019-12-11T01:26:49,42.805,6.029,CST-1368DR,7186,10068,15284,0.086,551
2019-12-11T01:29:51,42.805,6.029,CST-1368DR,7186,10069,15286,0.085,551
2019-12-11T01:32:52,42.805,6.029,CST-1368DR,7186,10068,15286,0.085,551
2019-12-11T01:35:54,42.805,6.029,CST-1368DR,7186,10069,15286,0.085,551
2019-12-11T01:38:55,42.805,6.029,CST-1368DR,7186,10068,15286,0.085,551
2019-12-11T01:41:57,42.805,6.029,CST-1368DR,7186,10068,15286,0.085,551
2019-12-11T01:44:59,42.805,6.029,CST-1368DR,7186,10069,15287,0.085,551
2019-12-11T01:48:00,42.805,6.029,CST-1368DR,7186,10068,15286,0.085,551
2019-12-11T01:51:02,42.805,6.029,CST-1368DR,7186,10070,15288,0.085,551
2019-12-11T01:54:04,42.805,6.029,CST-1368DR,7186,10068,15286,0.085,550
2019-12-11T01:57:05,42.805,6.029,CST-1368DR,7185,10066,15284,0.086,551
2019-12-11T02:00:07,42.805,6.029,CST-1368DR,7185,10068,15287,0.085,551
2019-12-11T02:03:08,42.805,6.029,CST-1368DR,7185,10067,15285,0.086,550
2019-12-11T02:06:10,42.805,6.029,CST-1368DR,7185,10068,15287,0.085,551
2019-12-11T02:09:12,42.805,6.029,CST-1368DR,7185,10068,15286,0.085,551
2019-12-11T02:12:13,42.805,6.029,CST-1368DR,7185,10068,15287,0.085,551
2019-12-11T02:15:15,42.805,6.029,CST-1368DR,7185,10068,15288,0.085,551
2019-12-11T02:18:17,42.805,6.029,CST-1368DR,7185,10068,15287,0.085,551
2019-12-11T02:21:18,42.805,6.029,CST-1368DR,7185,10067,15286,0.085,551
2019-12-11T02:24:20,42.805,6.029,CST-1368DR,7185,10068,15286,0.085,551
2019-12-11T02:27:21,42.805,6.029,CST-1368DR,7185,10068,15288,0.085,551
2019-12-11T02:30:23,42.805,6.029,CST-1368DR,7185,10065,15283,0.086,551
2019-12-11T02:33:25,42.805,6.029,CST-1368DR,7185,10069,15288,0.085,551
2019-12-11T02:36:26,42.805,6.029,CST-1368DR,7185,10068,15286,0.085,551
2019-12-11T02:39:28,42.805,6.029,CST-1368DR,7185,10067,15285,0.086,551
2019-12-11T02:42:30,42.805,6.029,CST-1368DR,7185,10068,15287,0.085,551
2019-12-11T02:45:31,42.805,6.029,CST-1368DR,7185,10067,15285,0.086,551
2019-12-11T02:48:33,42.805,6.029,CST-1368DR,7185,10068,15287,0.085,551
2019-12-11T02:51:34,42.805,6.029,CST-1368DR,7185,10068,15287,0.085,551
2019-12-11T02:54:37,42.805,6.029,CST-1368DR,7185,10068,15288,0.085,551
2019-12-11T02:57:38,42.805,6.029,CST-1368DR,7185,10068,15288,0.085,551
2019-12-11T03:00:40,42.805,6.029,CST-1368DR,7185,10068,15286,0.085,551
2019-12-11T03:03:42,42.805,6.029,CST-1368DR,7185,10068,15287,0.085,551
2019-12-11T03:06:43,42.805,6.029,CST-1368DR,7185,10068,15287,0.085,551
2019-12-11T03:09:45,42.805,6.029,CST-1368DR,7185,10067,15285,0.086,551
2019-12-11T03:12:47,42.805,6.029,CST-1368DR,7185,10067,15286,0.085,551
2019-12-11T03:15:48,42.805,6.029,CST-1368DR,7185,10068,15286,0.085,551
2019-12-11T03:18:50,42.805,6.029,CST-1368DR,7185,10068,15287,0.085,551
2019-12-11T03:21:51,42.805,6.029,CST-1368DR,7185,10068,15286,0.085,551
2019-12-11T03:24:53,42.805,6.029,CST-1368DR,7185,10068,15287,0.085,551
2019-12-11T03:27:55,42.805,6.029,CST-1368DR,7185,10068,15287,0.085,551
2019-12-11T03:30:56,42.805,6.029,CST-1368DR,7185,10066,15284,0.086,551
2019-12-11T03:33:58,42.805,6.029,CST-1368DR,7185,10068,15288,0.085,551
2019-12-11T03:36:59,42.805,6.029,CST-1368DR,7185,10067,15286,0.085,550
2019-12-11T03:40:01,42.805,6.029,CST-1368DR,7185,10069,15288,0.085,551
2019-12-11T03:43:03,42.805,6.029,CST-1368DR,7185,10068,15287,0.085,551
2019-12-11T03:46:04,42.805,6.029,CST-1368DR,7185,10068,15288,0.085,551
2019-12-11T03:49:06,42.805,6.029,CST-1368DR,7185,10068,15286,0.085,551
2019-12-11T03:52:08,42.805,6.029,CST-1368DR,7185,10068,15287,0.085,551
2019-12-11T03:55:09,42.805,6.029,CST-1368DR,7185,10067,15285,0.086,551
2019-12-11T03:58:11,42.805,6.029,CST-1368DR,7185,10068,15286,0.085,551
2019-12-11T04:01:13,42.805,6.029,CST-1368DR,7185,10068,15286,0.085,551
2019-12-11T04:04:14,42.805,6.029,CST-1368DR,7185,10068,15287,0.085,551
2019-12-11T04:07:16,42.805,6.029,CST-1368DR,7185,10068,15287,0.085,551
2019-12-11T04:10:17,42.805,6.029,CST-1368DR,7185,10068,15287,0.085,551
2019-12-11T04:13:19,42.805,6.029,CST-1368DR,7185,10067,15286,0.085,551
2019-12-11T04:16:21,42.805,6.029,CST-1368DR,7185,10066,15283,0.086,551
2019-12-11T04:19:23,42.805,6.029,CST-1368DR,7185,10069,15288,0.085,551
2019-12-11T04:22:24,42.805,6.029,CST-1368DR,7185,10068,15287,0.085,551
2019-12-11T04:25:26,42.805,6.029,CST-1368DR,7185,10067,15286,0.085,551
2019-12-11T04:28:27,42.805,6.029,CST-1368DR,7185,10066,15285,0.086,551
2019-12-11T04:31:29,42.805,6.029,CST-1368DR,7185,10069,15288,0.085,550
2019-12-11T04:34:31,42.805,6.029,CST-1368DR,7185,10068,15287,0.085,551
2019-12-11T04:37:32,42.805,6.029,CST-1368DR,7185,10067,15286,0.085,551
2019-12-11T04:40:34,42.805,6.029,CST-1368DR,7185,10065,15283,0.086,550
2019-12-11T04:43:36,42.805,6.029,CST-1368DR,7185,10069,15288,0.085,551
2019-12-11T04:46:37,42.805,6.029,CST-1368DR,7185,10068,15288,0.085,551
2019-12-11T04:49:39,42.805,6.029,CST-1368DR,7185,10069,15288,0.085,550
2019-12-11T04:52:40,42.805,6.029,CST-1368DR,7185,10068,15287,0.085,551
2019-12-11T04:55:42,42.805,6.029,CST-1368DR,7185,10067,15285,0.086,551
2019-12-11T04:58:44,42.805,6.029,CST-1368DR,7185,10068,15287,0.085,551
2019-12-11T05:01:45,42.805,6.029,CST-1368DR,7185,10068,15287,0.085,551
2019-12-11T05:04:47,42.805,6.029,CST-1368DR,7184,10068,15288,0.085,551
2019-12-11T05:07:49,42.805,6.029,CST-1368DR,7185,10068,15287,0.085,551
2019-12-11T05:10:50,42.805,6.029,CST-1368DR,7184,10066,15287,0.085,551
2019-12-11T05:13:52,42.805,6.029,CST-1368DR,7184,10067,15288,0.085,551
2019-12-11T05:16:53,42.805,6.029,CST-1368DR,7185,10069,15288,0.085,551
2019-12-11T05:19:55,42.805,6.029,CST-1368DR,7185,10068,15287,0.085,551
2019-12-11T05:22:57,42.805,6.029,CST-1368DR,7185,10066,15284,0.086,551
2019-12-11T05:25:58,42.805,6.029,CST-1368DR,7185,10069,15288,0.085,551
2019-12-11T05:29:00,42.805,6.029,CST-1368DR,7185,10068,15286,0.085,551
2019-12-11T05:32:02,42.805,6.029,CST-1368DR,7184,10068,15289,0.085,551
2019-12-11T05:35:03,42.805,6.029,CST-1368DR,7184,10068,15289,0.085,551
2019-12-11T05:38:05,42.805,6.029,CST-1368DR,7184,10069,15290,0.084,551
2019-12-11T05:41:06,42.805,6.029,CST-1368DR,7184,10068,15288,0.085,550
2019-12-11T05:44:08,42.805,6.029,CST-1368DR,7184,10068,15290,0.084,551
2019-12-11T05:47:10,42.805,6.029,CST-1368DR,7184,10068,15288,0.085,551
2019-12-11T05:50:11,42.805,6.029,CST-1368DR,7184,10068,15289,0.085,551
2019-12-11T05:53:13,42.805,6.029,CST-1368DR,7184,10068,15288,0.085,550
2019-12-11T05:56:15,42.805,6.029,CST-1368DR,7184,10068,15289,0.085,551
2019-12-11T05:59:16,42.805,6.029,CST-1368DR,7184,10068,15290,0.084,551
2019-12-11T06:02:18,42.805,6.029,CST-1368DR,7184,10067,15287,0.085,551
2019-12-11T06:05:19,42.805,6.029,CST-1368DR,7184,10067,15287,0.085,551
2019-12-11T06:08:21,42.805,6.029,CST-1368DR,7184,10067,15287,0.085,551
2019-12-11T06:11:23,42.805,6.029,CST-1368DR,7184,10067,15288,0.085,551
2019-12-11T06:14:24,42.805,6.029,CST-1368DR,7184,10065,15285,0.086,551
2019-12-11T06:17:26,42.805,6.029,CST-1368DR,7184,10065,15285,0.086,551
2019-12-11T06:20:27,42.805,6.029,CST-1368DR,7184,10065,15285,0.086,551
2019-12-11T06:23:29,42.805,6.029,CST-1368DR,7184,10068,15289,0.085,551
2019-12-11T06:26:31,42.805,6.029,CST-1368DR,7184,10068,15289,0.085,551
2019-12-11T06:29:32,42.805,6.029,CST-1368DR,7184,10067,15288,0.085,551
2019-12-11T06:32:34,42.805,6.029,CST-1368DR,7184,10067,15288,0.085,551
2019-12-11T06:35:36,42.805,6.029,CST-1368DR,7184,10065,15285,0.086,550
2019-12-11T06:38:37,42.805,6.029,CST-1368DR,7184,10068,15289,0.085,551
2019-12-11T06:41:39,42.805,6.029,CST-1368DR,7184,10067,15287,0.085,551
2019-12-11T06:44:40,42.805,6.029,CST-1368DR,7184,10066,15286,0.085,551
2019-12-11T06:47:42,42.805,6.029,CST-1368DR,7184,10066,15286,0.085,551
2019-12-11T06:50:44,42.805,6.029,CST-1368DR,7184,10067,15287,0.085,551
2019-12-11T06:53:45,42.805,6.029,CST-1368DR,7184,10064,15283,0.086,551
2019-12-11T06:56:47,42.805,6.029,CST-1368DR,7184,10068,15288,0.085,550
2019-12-11T06:59:49,42.805,6.029,CST-1368DR,7184,10066,15287,0.085,551
2019-12-11T07:02:51,42.805,6.029,CST-1368DR,7184,10064,15284,0.086,551
2019-12-11T07:05:52,42.805,6.029,CST-1368DR,7184,10068,15289,0.085,551
2019-12-11T07:08:54,42.805,6.029,CST-1368DR,7184,10067,15288,0.085,551
2019-12-11T07:11:56,42.805,6.029,CST-1368DR,7184,10068,15290,0.084,551
2019-12-11T07:14:57,42.805,6.029,CST-1368DR,7184,10068,15289,0.085,551
2019-12-11T07:17:59,42.805,6.029,CST-1368DR,7184,10068,15289,0.085,551
2019-12-11T07:21:00,42.805,6.029,CST-1368DR,7184,10067,15288,0.085,551
2019-12-11T07:24:02,42.805,6.029,CST-1368DR,7184,10068,15288,0.085,551
2019-12-11T07:27:04,42.805,6.029,CST-1368DR,7184,10068,15289,0.085,551
2019-12-11T07:30:05,42.805,6.029,CST-1368DR,7184,10068,15289,0.085,551
2019-12-11T07:33:07,42.805,6.029,CST-1368DR,7184,10067,15287,0.085,551
2019-12-11T07:36:09,42.805,6.029,CST-1368DR,7184,10068,15289,0.085,551
2019-12-11T07:39:10,42.805,6.029,CST-1368DR,7184,10066,15285,0.086,551
2019-12-11T07:42:12,42.805,6.029,CST-1368DR,7184,10067,15287,0.085,551
2019-12-11T07:45:14,42.805,6.029,CST-1368DR,7184,10067,15287,0.085,551
2019-12-11T07:48:15,42.805,6.029,CST-1368DR,7184,10064,15283,0.086,551
2019-12-11T07:51:17,42.805,6.029,CST-1368DR,7184,10069,15290,0.084,551
2019-12-11T07:54:18,42.805,6.029,CST-1368DR,7184,10068,15288,0.085,551
2019-12-11T07:57:20,42.805,6.029,CST-1368DR,7184,10069,15291,0.084,551
2019-12-11T08:00:22,42.805,6.029,CST-1368DR,7184,10070,15292,0.084,551
2019-12-11T08:03:23,42.805,6.029,CST-1368DR,7184,10071,15293,0.084,551
2019-12-11T08:06:25,42.805,6.029,CST-1368DR,7184,10071,15293,0.084,551
2019-12-11T08:09:26,42.805,6.029,CST-1368DR,7184,10071,15294,0.083,551
2019-12-11T08:12:28,42.805,6.029,CST-1368DR,7184,10066,15286,0.085,551
2019-12-11T08:15:30,42.805,6.029,CST-1368DR,7184,10069,15291,0.084,551
2019-12-11T08:18:31,42.805,6.029,CST-1368DR,7184,10067,15287,0.085,551
2019-12-11T08:21:33,42.805,6.029,CST-1368DR,7184,10069,15291,0.084,551
2019-12-11T08:24:35,42.805,6.029,CST-1368DR,7184,10069,15291,0.084,550
2019-12-11T08:27:37,42.805,6.029,CST-1368DR,7184,10070,15291,0.084,551
2019-12-11T08:30:38,42.805,6.029,CST-1368DR,7184,10068,15289,0.085,551
2019-12-11T08:33:40,42.805,6.029,CST-1368DR,7183,10069,15293,0.084,551
2019-12-11T08:36:41,42.805,6.029,CST-1368DR,7184,10069,15291,0.084,551
2019-12-11T08:39:43,42.805,6.029,CST-1368DR,7184,10069,15291,0.084,551
2019-12-11T08:42:45,42.805,6.029,CST-1368DR,7184,10071,15293,0.084,551
2019-12-11T08:45:46,42.805,6.029,CST-1368DR,7184,10069,15291,0.084,551
2019-12-11T08:48:48,42.805,6.029,CST-1368DR,7184,10068,15288,0.085,551
2019-12-11T08:51:49,42.805,6.029,CST-1368DR,7184,10070,15291,0.084,551
2019-12-11T08:54:51,42.805,6.029,CST-1368DR,7183,10069,15292,0.084,551
2019-12-11T08:57:53,42.805,6.029,CST-1368DR,7184,10068,15289,0.085,551
2019-12-11T09:00:54,42.805,6.029,CST-1368DR,7184,10069,15291,0.084,551
2019-12-11T09:03:56,42.805,6.029,CST-1368DR,7184,10068,15290,0.084,551
2019-12-11T09:06:58,42.805,6.029,CST-1368DR,7183,10068,15292,0.084,551
2019-12-11T09:09:59,42.805,6.029,CST-1368DR,7183,10069,15293,0.084,551
2019-12-11T09:13:01,42.805,6.029,CST-1368DR,7183,10066,15289,0.085,551
2019-12-11T09:16:02,42.805,6.029,CST-1368DR,7183,10069,15292,0.084,551
2019-12-11T09:19:04,42.805,6.029,CST-1368DR,7183,10069,15292,0.084,551
2019-12-11T09:22:06,42.805,6.029,CST-1368DR,7183,10068,15291,0.084,551
2019-12-11T09:25:07,42.805,6.029,CST-1368DR,7183,10069,15292,0.084,550
2019-12-11T09:28:09,42.805,6.029,CST-1368DR,7183,10069,15293,0.084,551
2019-12-11T09:31:11,42.805,6.029,CST-1368DR,7184,10069,15291,0.084,551
2019-12-11T09:34:13,42.805,6.029,CST-1368DR,7183,10066,15288,0.085,551
2019-12-11T09:37:14,42.805,6.029,CST-1368DR,7183,10069,15293,0.084,551
2019-12-11T09:40:16,42.805,6.029,CST-1368DR,7183,10068,15291,0.084,551
2019-12-11T09:43:17,42.805,6.029,CST-1368DR,7183,10069,15292,0.084,551
2019-12-11T09:46:19,42.805,6.029,CST-1368DR,7183,10069,15292,0.084,551
2019-12-11T09:49:21,42.805,6.029,CST-1368DR,7183,10069,15292,0.084,551
2019-12-11T09:52:23,42.805,6.029,CST-1368DR,7183,10070,15293,0.084,551
2019-12-11T09:55:24,42.805,6.029,CST-1368DR,7183,10070,15293,0.084,551
2019-12-11T09:58:26,42.805,6.029,CST-1368DR,7183,10069,15293,0.084,551
2019-12-11T10:01:28,42.805,6.029,CST-1368DR,7183,10069,15292,0.084,551
2019-12-11T10:04:29,42.805,6.029,CST-1368DR,7183,10068,15291,0.084,550
2019-12-11T10:07:31,42.805,6.029,CST-1368DR,7183,10069,15292,0.084,551
2019-12-11T10:10:32,42.805,6.029,CST-1368DR,7183,10068,15291,0.084,551
2019-12-11T10:13:34,42.805,6.029,CST-1368DR,7183,10069,15292,0.084,551
2019-12-11T10:16:36,42.805,6.029,CST-1368DR,7183,10069,15293,0.084,551
2019-12-11T10:19:37,42.805,6.029,CST-1368DR,7183,10069,15292,0.084,551
2019-12-11T10:22:39,42.805,6.029,CST-1368DR,7183,10069,15292,0.084,551
2019-12-11T10:25:40,42.805,6.029,CST-1368DR,7183,10068,15292,0.084,551
2019-12-11T10:28:42,42.805,6.029,CST-1368DR,7183,10068,15290,0.084,551
2019-12-11T10:31:44,42.805,6.029,CST-1368DR,7183,10066,15287,0.085,550
2019-12-11T10:34:45,42.805,6.029,CST-1368DR,7183,10067,15290,0.084,551
2019-12-11T10:37:47,42.805,6.029,CST-1368DR,7183,10068,15292,0.084,551
2019-12-11T10:40:49,42.805,6.029,CST-1368DR,7183,10067,15290,0.084,551
2019-12-11T10:43:51,42.805,6.029,CST-1368DR,7183,10068,15291,0.084,551
2019-12-11T10:46:52,42.805,6.029,CST-1368DR,7183,10067,15290,0.084,551
2019-12-11T10:49:54,42.805,6.029,CST-1368DR,7183,10068,15291,0.084,551
2019-12-11T10:52:56,42.805,6.029,CST-1368DR,7183,10067,15290,0.084,551
2019-12-11T10:55:57,42.805,6.029,CST-1368DR,7183,10068,15292,0.084,551
2019-12-11T10:58:59,42.805,6.029,CST-1368DR,7183,10068,15292,0.084,551
2019-12-11T11:02:00,42.805,6.029,CST-1368DR,7183,10068,15290,0.084,551
2019-12-11T11:05:02,42.805,6.029,CST-1368DR,7183,10068,15291,0.084,551
2019-12-11T11:08:04,42.805,6.029,CST-1368DR,7183,10068,15291,0.084,551
2019-12-11T11:11:05,42.805,6.029,CST-1368DR,7183,10068,15291,0.084,551
2019-12-11T11:14:07,42.805,6.029,CST-1368DR,7183,10067,15290,0.084,551
2019-12-11T11:17:09,42.805,6.029,CST-1368DR,7183,10068,15290,0.084,551
2019-12-11T11:20:10,42.805,6.029,CST-1368DR,7183,10068,15291,0.084,551
2019-12-11T11:23:12,42.805,6.029,CST-1368DR,7183,10068,15291,0.084,551
2019-12-11T11:26:13,42.805,6.029,CST-1368DR,7183,10068,15291,0.084,551
2019-12-11T11:29:15,42.805,6.029,CST-1368DR,7183,10068,15290,0.084,551
2019-12-11T11:32:17,42.805,6.029,CST-1368DR,7183,10068,15291,0.084,551
2019-12-11T11:35:18,42.805,6.029,CST-1368DR,7183,10067,15289,0.085,551
2019-12-11T11:38:20,42.805,6.029,CST-1368DR,7183,10067,15290,0.084,551
2019-12-11T11:41:21,42.805,6.029,CST-1368DR,7183,10067,15289,0.085,550
2019-12-11T11:44:23,42.805,6.029,CST-1368DR,7183,10067,15290,0.084,551
2019-12-11T11:47:25,42.805,6.029,CST-1368DR,7183,10068,15291,0.084,551
2019-12-11T11:50:26,42.805,6.029,CST-1368DR,7183,10068,15291,0.084,550
2019-12-11T11:53:28,42.805,6.029,CST-1368DR,7183,10066,15288,0.085,551
2019-12-11T11:56:30,42.805,6.029,CST-1368DR,7183,10067,15290,0.084,551
2019-12-11T11:59:31,42.805,6.029,CST-1368DR,7183,10067,15289,0.085,551
2019-12-11T12:02:33,42.805,6.029,CST-1368DR,7183,10068,15291,0.084,551
2019-12-11T12:05:34,42.805,6.029,CST-1368DR,7183,10067,15289,0.085,551
2019-12-11T12:08:36,42.805,6.029,CST-1368DR,7183,10068,15290,0.084,551
2019-12-11T12:11:38,42.805,6.029,CST-1368DR,7183,10067,15289,0.085,551
2019-12-11T12:14:39,42.805,6.029,CST-1368DR,7183,10068,15290,0.084,551
2019-12-11T12:17:41,42.805,6.029,CST-1368DR,7183,10067,15290,0.084,551
2019-12-11T12:20:43,42.805,6.029,CST-1368DR,7183,10067,15290,0.084,551
2019-12-11T12:23:44,42.805,6.029,CST-1368DR,7183,10066,15289,0.085,551
2019-12-11T12:26:46,42.805,6.029,CST-1368DR,7183,10066,15287,0.085,551
2019-12-11T12:29:48,42.805,6.029,CST-1368DR,7183,10067,15290,0.084,551
2019-12-11T12:32:49,42.805,6.029,CST-1368DR,7183,10067,15289,0.085,551
2019-12-11T12:35:51,42.805,6.029,CST-1368DR,7183,10067,15289,0.085,551
2019-12-11T12:38:53,42.805,6.029,CST-1368DR,7183,10067,15289,0.085,551
2019-12-11T12:41:54,42.805,6.029,CST-1368DR,7182,10065,15288,0.085,551
2019-12-11T12:44:56,42.805,6.029,CST-1368DR,7183,10067,15289,0.085,550
2019-12-11T12:47:58,42.805,6.029,CST-1368DR,7182,10067,15292,0.084,551
2019-12-11T12:50:59,42.805,6.029,CST-1368DR,7182,10066,15290,0.084,551
2019-12-11T12:54:01,42.805,6.029,CST-1368DR,7183,10066,15289,0.085,550
2019-12-11T12:57:03,42.805,6.029,CST-1368DR,7182,10066,15290,0.084,551
2019-12-11T13:00:04,42.805,6.029,CST-1368DR,7182,10065,15289,0.085,551
2019-12-11T13:03:06,42.805,6.029,CST-1368DR,7183,10067,15289,0.085,551
2019-12-11T13:06:08,42.805,6.029,CST-1368DR,7183,10066,15289,0.085,551
2019-12-11T13:09:09,42.805,6.029,CST-1368DR,7182,10067,15291,0.084,551
2019-12-11T13:12:11,42.805,6.029,CST-1368DR,7182,10066,15290,0.084,550
2019-12-11T13:15:12,42.805,6.029,CST-1368DR,7182,10067,15292,0.084,551
2019-12-11T13:18:14,42.805,6.029,CST-1368DR,7182,10066,15291,0.084,551
2019-12-11T13:21:16,42.805,6.029,CST-1368DR,7182,10067,15291,0.084,551
2019-12-11T13:24:17,42.805,6.029,CST-1368DR,7182,10067,15291,0.084,551
2019-12-11T13:27:19,42.805,6.029,CST-1368DR,7182,10067,15291,0.084,550
2019-12-11T13:30:21,42.805,6.029,CST-1368DR,7182,10067,15291,0.084,551
2019-12-11T13:33:22,42.805,6.029,CST-1368DR,7182,10066,15291,0.084,551
2019-12-11T13:36:24,42.805,6.029,CST-1368DR,7182,10067,15291,0.084,551
2019-12-11T13:39:25,42.805,6.029,CST-1368DR,7182,10067,15292,0.084,551
2019-12-11T13:42:27,42.805,6.029,CST-1368DR,7182,10065,15289,0.085,551
2019-12-11T13:45:29,42.805,6.029,CST-1368DR,7182,10066,15290,0.084,551
2019-12-11T13:48:30,42.805,6.029,CST-1368DR,7182,10066,15290,0.084,551
2019-12-11T13:51:32,42.805,6.029,CST-1368DR,7182,10066,15291,0.084,551
2019-12-11T13:54:34,42.805,6.029,CST-1368DR,7182,10067,15291,0.084,551
2019-12-11T13:57:35,42.805,6.029,CST-1368DR,7182,10066,15290,0.084,551
2019-12-11T14:00:37,42.805,6.029,CST-1368DR,7182,10066,15289,0.085,551
2019-12-11T14:03:39,42.805,6.029,CST-1368DR,7182,10065,15289,0.085,551
2019-12-11T14:06:40,42.805,6.029,CST-1368DR,7182,10066,15290,0.084,551
2019-12-11T14:09:42,42.805,6.029,CST-1368DR,7182,10067,15291,0.084,551
2019-12-11T14:12:44,42.805,6.029,CST-1368DR,7182,10066,15290,0.084,551
2019-12-11T14:15:45,42.805,6.029,CST-1368DR,7182,10066,15290,0.084,551
2019-12-11T14:18:47,42.805,6.029,CST-1368DR,7182,10066,15290,0.084,551
2019-12-11T14:21:48,42.805,6.029,CST-1368DR,7182,10066,15291,0.084,551
2019-12-11T14:24:50,42.805,6.029,CST-1368DR,7182,10066,15290,0.084,551
2019-12-11T14:27:52,42.805,6.029,CST-1368DR,7182,10066,15291,0.084,551
2019-12-11T14:30:53,42.805,6.029,CST-1368DR,7182,10066,15291,0.084,551
2019-12-11T14:33:55,42.805,6.029,CST-1368DR,7182,10067,15291,0.084,551
2019-12-11T14:36:57,42.805,6.029,CST-1368DR,7182,10066,15291,0.084,551
2019-12-11T14:39:58,42.805,6.029,CST-1368DR,7182,10066,15290,0.084,551
2019-12-11T14:43:00,42.805,6.029,CST-1368DR,7182,10067,15292,0.084,551
2019-12-11T14:46:01,42.805,6.029,CST-1368DR,7182,10065,15289,0.085,551
2019-12-11T14:49:03,42.805,6.029,CST-1368DR,7182,10066,15291,0.084,551
2019-12-11T14:52:05,42.805,6.029,CST-1368DR,7182,10066,15290,0.084,551
2019-12-11T14:55:06,42.805,6.029,CST-1368DR,7182,10066,15290,0.084,551
2019-12-11T14:58:08,42.805,6.029,CST-1368DR,7182,10065,15289,0.085,551
2019-12-11T15:01:10,42.805,6.029,CST-1368DR,7182,10067,15291,0.084,551
2019-12-11T15:04:11,42.805,6.029,CST-1368DR,7182,10066,15289,0.085,551
2019-12-11T15:07:13,42.805,6.029,CST-1368DR,7182,10067,15291,0.084,551
2019-12-11T15:10:15,42.805,6.029,CST-1368DR,7182,10064,15287,0.085,551
2019-12-11T15:13:16,42.805,6.029,CST-1368DR,7182,10064,15287,0.085,551
2019-12-11T15:16:18,42.805,6.029,CST-1368DR,7182,10064,15287,0.085,551
2019-12-11T15:19:20,42.805,6.029,CST-1368DR,7182,10066,15290,0.084,551
2019-12-11T15:22:21,42.805,6.029,CST-1368DR,7182,10066,15289,0.085,551
2019-12-11T15:25:23,42.805,6.029,CST-1368DR,7182,10065,15288,0.085,551
2019-12-11T15:28:25,42.805,6.029,CST-1368DR,7182,10066,15289,0.085,551
2019-12-11T15:31:26,42.805,6.029,CST-1368DR,7181,10064,15289,0.085,551
2019-12-11T15:34:28,42.805,6.029,CST-1368DR,7182,10066,15289,0.085,551
2019-12-11T15:37:29,42.805,6.029,CST-1368DR,7181,10065,15291,0.084,551
2019-12-11T15:40:31,42.805,6.029,CST-1368DR,7181,10065,15291,0.084,551
2019-12-11T15:43:33,42.805,6.029,CST-1368DR,7181,10062,15286,0.085,551
2019-12-11T15:46:34,42.805,6.029,CST-1368DR,7181,10065,15290,0.084,551
2019-12-11T15:49:36,42.805,6.029,CST-1368DR,7181,10065,15290,0.084,551
2019-12-11T15:52:38,42.805,6.029,CST-1368DR,7181,10065,15291,0.084,551
2019-12-11T15:55:39,42.805,6.029,CST-1368DR,7181,10065,15290,0.084,551
2019-12-11T15:58:41,42.805,6.029,CST-1368DR,7181,10064,15289,0.085,551
2019-12-11T16:01:43,42.805,6.029,CST-1368DR,7181,10063,15288,0.085,551
2019-12-11T16:04:44,42.805,6.029,CST-1368DR,7181,10065,15291,0.084,551
2019-12-11T16:07:46,42.805,6.029,CST-1368DR,7181,10063,15288,0.085,551
2019-12-11T16:10:48,42.805,6.029,CST-1368DR,7181,10064,15289,0.085,551
2019-12-11T16:13:49,42.805,6.029,CST-1368DR,7181,10065,15290,0.084,551
2019-12-11T16:16:51,42.805,6.029,CST-1368DR,7181,10066,15291,0.084,550
2019-12-11T16:19:53,42.805,6.029,CST-1368DR,7181,10065,15290,0.084,551
2019-12-11T16:22:54,42.805,6.029,CST-1368DR,7181,10065,15291,0.084,551
2019-12-11T16:25:56,42.805,6.029,CST-1368DR,7181,10065,15291,0.084,551
2019-12-11T16:28:58,42.805,6.029,CST-1368DR,7181,10065,15291,0.084,551
2019-12-11T16:31:59,42.805,6.029,CST-1368DR,7181,10065,15290,0.084,551
2019-12-11T16:35:01,42.805,6.029,CST-1368DR,7181,10065,15291,0.084,551
2019-12-11T16:38:03,42.805,6.029,CST-1368DR,7181,10064,15289,0.085,551